Location: Blachownia
(50.7807°N, 18.9578°E)
Time: 06:16:50
(UTC+01:00)

ISS - Pass Details

Date: 28 January 2019
Orbit: 403 x 411 km, 51.6° (Epoch: 21 February)

Event Time Altitude Azimuth Distance (km) Brightness Sun altitude
Rises 17:29:56 0° 238° (WSW) 2,327 1.8 -9.8°
Reaches altitude 10° 17:32:02 10° 233° (SW) 1,470 0.3 -10.1°
Maximum altitude 17:35:15 52° 156° (SSE) 519 -3.4 -10.6°
Enters shadow 17:37:34 17° 84° (E) 1,120 -2.2 -11.0°
